Weather History for London-Corbin, KY

Change the Weather History Date:

Wednesday, February 26, 2014

  Actual Average Record
Temperature  
Mean Temperature 28 °F 42 °F  
Max Temperature 34 °F 53 °F 81 °F (1977)
Min Temperature 21 °F 32 °F 2 °F (1967)
Degree Days  
Heating Degree Days 37 23  
Month to date heating degree days 707 667  
Since 1 July heating degree days 3438 3230  
Cooling Degree Days 0 0  
Month to date cooling degree days 0 0  
Year to date cooling degree days 0 0  
Moisture  
Dew Point 12 °F    
Average Humidity 53    
Maximum Humidity 74    
Minimum Humidity 31    
Precipitation  
Precipitation T in 0.14 in 1.52 in (1962)
Month to date precipitation 4.23 3.44  
Year to date precipitation 6.51 6.98  
Sea Level Pressure  
Sea Level Pressure 30.05 in    
Wind  
Wind Speed 8 mph (NW)    
Max Wind Speed 17 mph    
Max Gust Speed 24 mph    
Visibility 10 miles    
Events Snow    
T = Trace of Precipitation, MM = Missing Value Source: NWS Daily Summary

Daily Weather History Graph

Daily Weather History Graph

Search for Another Location

Airport:

Trip Planner

Search our weather history database for the weather conditions in past years. The results will help you decide how hot, cold, wet, or windy it might be!

Date:

Astronomy

Feb. 26, 2014 Rise Set
Actual Time 7:11 AM EST 6:27 PM EST
Civil Twilight 6:45 AM EST 6:53 PM EST
Nautical Twilight 6:15 AM EST 7:23 PM EST
Astronomical Twilight 5:44 AM EST 7:54 PM EST
Moon 4:53 AM EST (2/26) 3:43 PM EST (2/26)
Length of Visible Light 12h 08m
Length of Day
11h 16m
Waning Crescent, 10% of the Moon is Illuminated
Feb 26
Waning Crescent
Mar 1
New
Mar 8
First Quarter
Mar 16
Full
Mar 23
Last Quarter

Hourly Weather History & Observations

Time (EST) Temp. Windchill Dew Point Humidity Pressure Visibility Wind Dir Wind Speed Gust Speed Precip Events Conditions
12:53 AM 33.1 °F 26.9 °F 18.0 °F 54% 30.04 in 10.0 mi NNW 6.9 mph - N/A   Overcast
1:53 AM 30.9 °F 22.8 °F 18.0 °F 59% 30.04 in 10.0 mi NNW 9.2 mph - N/A   Overcast
2:53 AM 30.0 °F 21.1 °F 18.0 °F 61% 30.05 in 10.0 mi NNW 10.4 mph - N/A   Overcast
3:28 AM 28.9 °F 20.4 °F 18.0 °F 64% 30.03 in 10.0 mi NNW 9.2 mph - N/A   Overcast
3:53 AM 28.9 °F 18.6 °F 19.0 °F 67% 30.06 in 10.0 mi NNW 12.7 mph - N/A   Overcast
4:53 AM 27.0 °F 16.7 °F 18.0 °F 69% 30.07 in 10.0 mi NW 11.5 mph 18.4 mph N/A   Overcast
5:39 AM 26.1 °F 15.0 °F 16.0 °F 66% 30.08 in 10.0 mi NW 12.7 mph - N/A   Overcast
5:53 AM 25.0 °F 14.2 °F 17.1 °F 72% 30.12 in 10.0 mi NW 11.5 mph - N/A   Overcast
6:30 AM 24.1 °F 13.7 °F 15.1 °F 69% 30.11 in 10.0 mi NNW 10.4 mph - 0.00 in   Overcast
6:53 AM 24.1 °F 16.0 °F 15.1 °F 69% 30.14 in 5.0 mi NW 6.9 mph - 0.00 in Snow Light Snow
7:53 AM 23.0 °F 13.9 °F 17.1 °F 78% 30.12 in 10.0 mi NNW 8.1 mph - 0.00 in   Mostly Cloudy
8:53 AM 23.0 °F 11.1 °F 12.9 °F 65% 30.13 in 10.0 mi NNW 12.7 mph - N/A   Mostly Cloudy
9:50 AM 26.6 °F 18.2 °F 14.0 °F 59% 30.10 in 10.0 mi NNE 8.1 mph - N/A   Scattered Clouds
9:53 AM 27.0 °F 18.7 °F 14.0 °F 58% 30.13 in 10.0 mi NNE 8.1 mph - N/A   Scattered Clouds
10:53 AM 25.0 °F 14.8 °F 12.0 °F 58% 30.12 in 10.0 mi NNW 10.4 mph - N/A   Overcast
11:53 AM 26.1 °F 15.6 °F 12.9 °F 58% 30.10 in 10.0 mi North 11.5 mph - N/A   Overcast
12:53 PM 28.0 °F 20.0 °F 10.0 °F 47% 30.07 in 10.0 mi NNW 8.1 mph - N/A   Partly Cloudy
1:53 PM 30.9 °F 25.2 °F 9.0 °F 40% 30.04 in 10.0 mi North 5.8 mph - N/A   Clear
2:53 PM 30.9 °F 25.2 °F 5.0 °F 33% 30.00 in 10.0 mi Variable 5.8 mph - N/A   Clear
3:53 PM 32.0 °F 24.2 °F 6.1 °F 34% 29.98 in 10.0 mi North 9.2 mph - N/A   Clear
4:53 PM 30.9 °F 22.2 °F 3.9 °F 32% 29.97 in 10.0 mi WNW 10.4 mph - N/A   Clear
5:53 PM 28.0 °F 22.8 °F 3.0 °F 34% 29.97 in 10.0 mi West 4.6 mph - N/A   Clear
6:53 PM 26.1 °F 21.9 °F 5.0 °F 41% 29.97 in 10.0 mi NW 3.5 mph - N/A   Clear
7:53 PM 25.0 °F 20.7 °F 5.0 °F 43% 29.98 in 10.0 mi NW 3.5 mph - N/A   Clear
8:53 PM 24.1 °F 19.7 °F 7.0 °F 48% 29.97 in 10.0 mi NW 3.5 mph - N/A   Clear
9:53 PM 24.1 °F 19.7 °F 7.0 °F 48% 29.97 in 10.0 mi WSW 3.5 mph - N/A   Clear
10:53 PM 21.9 °F 14.5 °F 8.1 °F 55% 29.98 in 10.0 mi West 5.8 mph - N/A   Clear
11:53 PM 21.9 °F 15.7 °F 6.1 °F 51% 29.97 in 10.0 mi SW 4.6 mph - N/A   Clear